010  
ASUS44 KOHX 171710  
RWROHX  
MIDDLE TENNESSEE HOURLY WEATHER ROUNDUP  
NATIONAL WEATHER SERVICE NASHVILLE TN  
1100 AM CST SUN DEC 17 2017  
 
NOTE: "FAIR" INDICATES FEW OR NO CLOUDS BELOW 12,000 FEET WITH  
NO SIGNIFICANT WEATHER AND/OR S TO VISIBILITY
.  
 
* THESE REPORTS ARE NOT UNDER NWS QUALITY CONTROL AND MAY NOT  
REPORT WEATHER SUCH AS PRECIPITATION AND FOG.
 
 
 
TNZ005>011-023>034-057-059-062>066-078-080-171800   
..NORTHERN MIDDLE TENNESSEE
 
 
 
CITY SKY/WX TMP DP RH WIND PRES REMARKS
 
CLARKSVILLE CLOUDY 43 39 86 NW5 30.18R FOG  
CROSSVILLE CLOUDY 42 32 67 SE5 30.18F  
GALLATIN CLOUDY 45 41 87 S6 30.17F  
DICKSON PTSUNNY 42 39 89 E6 30.12S  
NASHVILLE PTSUNNY 44 40 85 S7 30.14F  
PORTLAND PTSUNNY 43 39 87 SW3 30.14S  
SMYRNA CLOUDY 44 40 85 SE8 30.14F  
SPARTA PTSUNNY 45 37 76 VRB6 30.17F  
SPRINGFIELD CLOUDY 43 39 87 SW6 30.14R  
WEST NASHVILLE CLOUDY 45 39 81 VRB7 30.13R  

 
TNZ056-058-060-061-075>077-079-093>097-171800   
..SOUTHERN MIDDLE TENNESSEE
 
 
 
CITY SKY/WX TMP DP RH WIND PRES REMARKS
 
COLUMBIA MOSUNNY 45 43 93 SE6G14 30.10F  
FAYETTEVILLE PTSUNNY 41 41 100 SE15 30.17F FOG  
MCMINNVILLE MOSUNNY 45 39 81 S5 30.17F HAZE  
MURFREESBORO CLOUDY 43 38 82 SE10 30.12F  
PULASKI PTSUNNY 43 43 100 SE12G18 30.12F  
SHELBYVILLE PTSUNNY 43 39 87 SE12G21 30.14F  
TULLAHOMA CLOUDY 41 39 93 S12G22 30.16F FOG  
WINCHESTER CLOUDY 43 37 81 SW6 30.25R  

 
 
   
..KEY TO REMARKS
 
 
VSB - VISIBILITY IN MILES  
WCI - WIND CHILL INDEX  
HX - HEAT INDEX  
 
 
 
CLICK HERE TO GO TO PREVIOUS BULLETINS.

The Nexlab TN Page Main Text Page